Albany, NY

8:46 AM EST on November 12, 2019 (GMT -0500)
Albany International

Weather History for KALB - July, 2019

Change the Weather History Date:

Saturday, July 13, 2019

  Actual Average Record
Temperature  
Mean Temperature 77 °F 72 °F  
Max Temperature 88 °F 83 °F 96 °F (1894)
Min Temperature 65 °F 62 °F 45 °F (1939)
Degree Days  
Heating Degree Days 0 0  
Month to date heating degree days 0 0  
Since 1 June heating degree days 27 52  
Since 1 July heating degree days 0 0  
Cooling Degree Days 12 7  
Month to date cooling degree days 146 88  
Year to date cooling degree days 296 236  
Since 1 June cooling degree days 274 206  
Growing Degree Days 26 (Base 50)    
Moisture  
Dew Point 61 °F    
Average Humidity 59    
Maximum Humidity 78    
Minimum Humidity 40    
Precipitation  
Precipitation 0.00 in 0.14 in 3.49 in (1996)
Month to date precipitation 0.51 1.71  
Year to date precipitation 21.38 20.28  
Sea Level Pressure  
Sea Level Pressure 29.89 in    
Wind  
Wind Speed 5 mph (West)    
Max Wind Speed 13 mph    
Max Gust Speed 20 mph    
Visibility 10 miles    
Events      
T = Trace of Precipitation, MM = Missing Value Source: NWS Daily Summary

Daily Weather History Graph

Daily Weather History Graph

Search for Another Location

Airport or City:

Astronomy

Jul. 13, 2019 Rise Set
Actual Time 5:28 AM EDT 8:32 PM EDT
Civil Twilight 4:54 AM EDT 9:06 PM EDT
Nautical Twilight 4:10 AM EDT 9:50 PM EDT
Astronomical Twilight 3:18 AM EDT 10:41 PM EDT
Moon 5:52 PM EDT (7/13) 2:48 AM EDT (7/13)
Length of Visible Light 16h 12m
Length of Day
15h 04m
Waxing Gibbous, 90% of the Moon is Illuminated
Jul 13
Waxing Gibbous
Jul 16
Full
Jul 24
Last Quarter
Jul 31
New
Aug 7
First Quarter

Hourly Weather History & Observations

Time (EDT) Temp. Heat Index Dew Point Humidity Pressure Visibility Wind Dir Wind Speed Gust Speed Precip Events Conditions
12:51 AM 69.1 °F - 59.0 °F 70% 29.87 in 10.0 mi West 10.4 mph - N/A   Partly Cloudy
1:51 AM 66.9 °F - 59.0 °F 76% 29.87 in 10.0 mi WNW 4.6 mph - N/A   Partly Cloudy
2:51 AM 64.9 °F - 57.9 °F 78% 29.88 in 10.0 mi WNW 4.6 mph - N/A   Partly Cloudy
3:51 AM 64.9 °F - 57.9 °F 78% 29.88 in 10.0 mi West 4.6 mph - N/A   Partly Cloudy
4:51 AM 64.9 °F - 57.0 °F 75% 29.89 in 10.0 mi West 4.6 mph - N/A   Partly Cloudy
5:51 AM 64.9 °F - 57.0 °F 75% 29.90 in 10.0 mi Calm Calm - N/A   Partly Cloudy
6:51 AM 68.0 °F - 59.0 °F 73% 29.92 in 10.0 mi WNW 5.8 mph - N/A   Partly Cloudy
7:51 AM 70.0 °F - 60.1 °F 71% 29.94 in 10.0 mi WNW 8.1 mph - N/A   Partly Cloudy
8:51 AM 73.0 °F - 61.0 °F 66% 29.95 in 10.0 mi NNW 8.1 mph - N/A   Partly Cloudy
10:51 AM 79.0 °F - 61.0 °F 54% 29.94 in 10.0 mi Variable 6.9 mph - N/A   Scattered Clouds
11:51 AM 79.0 °F - 60.1 °F 52% 29.93 in 10.0 mi WNW 6.9 mph - N/A   Mostly Cloudy
12:51 PM 82.0 °F 82.4 °F 60.1 °F 47% 29.92 in 10.0 mi Variable 6.9 mph - N/A   Mostly Cloudy
1:51 PM 82.9 °F 83.3 °F 61.0 °F 47% 29.91 in 10.0 mi West 9.2 mph - N/A   Mostly Cloudy
2:51 PM 84.0 °F 84.0 °F 60.1 °F 44% 29.89 in 10.0 mi NW 8.1 mph - N/A   Scattered Clouds
3:51 PM 87.1 °F 87.0 °F 61.0 °F 41% 29.88 in 10.0 mi WNW 9.2 mph - N/A   Partly Cloudy
4:51 PM 87.1 °F 87.0 °F 61.0 °F 41% 29.86 in 10.0 mi West 8.1 mph - N/A   Partly Cloudy
5:51 PM 87.1 °F 87.0 °F 61.0 °F 41% 29.85 in 10.0 mi South 5.8 mph - N/A   Partly Cloudy
6:51 PM 84.0 °F 84.9 °F 63.0 °F 49% 29.85 in 10.0 mi SSW 5.8 mph - N/A   Partly Cloudy
7:51 PM 82.9 °F 84.4 °F 64.0 °F 53% 29.86 in 10.0 mi South 5.8 mph - N/A   Partly Cloudy
8:51 PM 81.0 °F 82.5 °F 64.0 °F 56% 29.87 in 10.0 mi SSW 3.5 mph - N/A   Mostly Cloudy
9:51 PM 78.1 °F - 63.0 °F 60% 29.88 in 10.0 mi WSW 5.8 mph - N/A   Mostly Cloudy
10:51 PM 75.0 °F - 63.0 °F 66% 29.88 in 10.0 mi Calm Calm - N/A   Mostly Cloudy
11:51 PM 75.9 °F - 63.0 °F 64% 29.88 in 10.0 mi SSW 3.5 mph - N/A   Overcast